Flag for U.S.A. Weather past 2 weeks in Pontiac, Michigan, U.S.A.

Now
70 °F

Overcast.


Feels Like: 68 °F
Forecast: 62 / 74 °F
Wind: 5 mph from East

Location: Oakland County International Airport

Current Time: Aug 29, 2015 at 5:46:26 PM

Latest Report: Aug 29, 2015 at 4:53 PM


Visibility: 8 mi

Pressure: 30.06 "Hg

Humidity: 87%

Dew point: 66 °F

Location of PontiacLocation

Historic Weather in Pontiac — Graph

°F

Pontiac temperature yesterday

Maximum temperature yesterday: 74 °F (at 4:53 PM)
Minimum temperature yesterday: 48 °F (at 6:53 AM)
Average temperature yesterday: 62 °F

Past Weeks' High & Low Weather Summary

 TemperatureHumidityPressure
High87 °F (Aug 16, 3:53 PM)97% (Aug 16, 5:53 AM)30.22 "Hg (Aug 16, 5:53 AM)
Low48 °F (Aug 28, 6:53 AM)39% (Aug 21, 4:53 PM)29.67 "Hg (Aug 20, 3:53 AM)
Average68 °F74%30.01 "Hg
* Reported Aug 14 3:53 PM — Aug 29 3:53 PM, Pontiac, Weather by CustomWeather, © 2015

Note: Actual official high and low records may vary slightly from our data, if they occured in-between our weather recording intervals... More about our weather records

Advertising

Pontiac weather history for previous 24 hours

 ConditionsComfort  
Time TempWeatherWind HumidityBarometerVisibility
3:53 PM
Sat, Aug 29
71 °FMostly cloudy.7 mph84%30.07 "Hg7 mi
2:53 PM70 °FMostly cloudy.5 mph87%30.09 "Hg7 mi
1:53 PM70 °FLight rain. Mostly cloudy.No wind81%30.11 "Hg6 mi
12:53 PM70 °FLight rain. Mostly cloudy.6 mph81%30.10 "Hg7 mi
11:53 AM71 °FMostly cloudy.8 mph73%30.12 "Hg10 mi
10:53 AM70 °FMostly cloudy.6 mph76%30.13 "Hg10 mi
9:53 AM67 °FPartly sunny.5 mph85%30.13 "Hg9 mi
8:53 AM65 °FFog.3 mph94%30.14 "Hg5 mi
7:53 AM64 °FFog.No wind94%30.14 "Hg4 mi
6:53 AM62 °FFog.No wind96%30.12 "Hg4 mi
5:53 AM63 °FFog.No wind97%30.11 "Hg4 mi
4:53 AM64 °FClear.No wind94%30.11 "Hg8 mi
3:53 AM65 °FLight rain. Passing clouds.3 mph94%30.12 "Hg8 mi
2:53 AM65 °FLight rain. Passing clouds.3 mph91%30.12 "Hg10 mi
1:53 AM65 °FClear.3 mph87%30.14 "Hg10 mi
12:53 AM65 °FClear.No wind85%30.14 "Hg10 mi
11:53 PM
Fri, Aug 28
65 °FOvercast.No wind81%30.14 "Hg10 mi
10:53 PM65 °FOvercast.No wind81%30.14 "Hg10 mi
9:53 PM66 °FOvercast.3 mph78%30.13 "Hg10 mi
8:53 PM68 °FOvercast.5 mph73%30.12 "Hg10 mi
7:53 PM71 °FOvercast.3 mph63%30.12 "Hg10 mi
6:53 PM72 °FOvercast.5 mph59%30.12 "Hg10 mi
5:53 PM73 °FOvercast.5 mph57%30.13 "Hg10 mi
Weather by CustomWeather, © 2015

See weather overviewHow to use our weather pages